Location: Le Petit-Vavre
(46.5081°N, 1.5239°E)
Time: 18:31:51
(UTC+00:00)

Cosmos 1727 Rocket - Pass Details

Date: 03 March 2021
Orbit: 961 x 996 km, 82.9° (Epoch: 15 April)

Event Time Altitude Azimuth Distance (km) Brightness Sun altitude
Rises 20:27:22 0° 348° (NNW) 3,658 7.5 -28.6°
Reaches altitude 10° 20:29:54 10° 346° (NNW) 2,709 6.7 -29.0°
Maximum altitude 20:36:00 64° 266° (W) 1,064 4.3 -29.9°
Enters shadow 20:37:44 46° 208° (SSW) 1,280 4.5 -30.2°
